Пески

Россия / Московская область     55°12′51″N   38°46′09″E
темп.,
°C
ветер,
м/с
пор.,
м/с
влажн.,
%
обл.,
%
осадки,
мм/ч
давл.,
гПа
погр.,
м
19 апреля, пн
пн1900:00+5всв3888100 0.0 1022215
03:00+7св51181100 0.0 1022507
06:00+5св51190100 0.1 1022431
09:00+7всв697897 0.1 1022712
12:00+10всв7958100 0.0 10221285
15:00+10всв71056100 0.0 10221557
18:00+9в51064100 0.1 10221335
21:00+5в61170100 0.3 1024941
20 апреля, вт
вт2000:00+4в51070100 0.3 1023827
03:00+4всв5117470 0.4 1022660
06:00+3всв5117495 0.0 1021570
09:00+2в61294100 0.1 1021580
12:00+2всв61397100 2.3 1020601
15:00+2в61397100 4.8 1019645
18:00+2в61397100 1.2 1017695
21:00+3в61497100 1.9 1014793
21 апреля, ср
ср2100:00+3всв71597100 3.0 1009970
03:00+2всв71697100 11.4 10041039
06:00+5в91793100 2.9 9981105
09:00+3юв71097100 6.3 997749
12:00+2ююз81596100 0.1 1002775
15:00+3юз71288100 0.1 1007943
18:00+4юз61090100 0.1 1010986
21:00+3ююз4109496 0.1 1012368
22 апреля, чт
чт2200:00+4ю4990100 0.0 1013209
03:00+4ю4990100 0.0 1014229
06:00+3ю379594 0.0 1015164
09:00+7ююз467969 0.0 1016566
12:00+11юз5661100 0.1 10161443
15:00+12юз5754100 0.2 10161649
18:00+12ю476483 0.0 1017364
21:00+8ю34907 2.1 101845
23 апреля, пт
пт2300:00+7ю35906 0.0 101881
03:00+6ю38905 0.0 1018135
06:00+6ю389098 0.0 1018153
09:00+9ююв41083100 0.0 1018273
12:00+13ю586775 0.0 1017500
15:00+17ю694751 0.0 10152365
18:00+14ююв5106090 0.0 1015425
21:00+10ююв412755 0.0 1014236